| time (UTC) | temp F | wind direction | speed MPH | gust MPH | rain 1hr in | rain 24hr in | rain mn in | humidity % | barometer mb |
| 20260503191537 | 66 | 170 | 3.0 | 5.0 | 0.00 | 0.00 | 0.00 | 73 | 1015.9 |
| 20260503190036 | 67 | 182 | 3.0 | 9.0 | 0.00 | 0.00 | 0.00 | 73 | 1015.8 |
| 20260503184539 | 67 | 157 | 6.0 | 9.0 | 0.00 | 0.00 | 0.00 | 72 | 1015.7 |
| 20260503183051 | 67 | 155 | 4.0 | 9.0 | 0.00 | 0.00 | 0.00 | 71 | 1015.7 |
| 20260503181532 | 67 | 134 | 6.0 | 10.0 | 0.00 | 0.00 | 0.00 | 69 | 1015.6 |
| 20260503180033 | 66 | 136 | 7.0 | 10.0 | 0.00 | 0.00 | 0.00 | 69 | 1015.6 |
| 20260503174532 | 67 | 141 | 6.0 | 10.0 | 0.00 | 0.00 | 0.00 | 71 | 1015.5 |
| 20260503173032 | 67 | 133 | 9.0 | 12.0 | 0.00 | 0.00 | 0.00 | 70 | 1015.5 |
| 20260503171529 | 66 | 137 | 7.0 | 10.0 | 0.00 | 0.00 | 0.00 | 73 | 1015.6 |
| 20260503081615 | 63 | 56 | 3.0 | 5.0 | 0.00 | 0.00 | 0.00 | 69 | 1018.8 |
| 20260503071537 | 62 | 266 | 3.0 | 7.0 | 0.00 | 0.00 | 0.00 | 64 | 1018.9 |
| 20260503060104 | 57 | 256 | 3.0 | 6.0 | 0.00 | 0.00 | 0.00 | 69 | 1018.7 |
| 20260503054605 | 56 | 264 | 4.0 | 8.0 | 0.00 | 0.00 | 0.00 | 70 | 1018.8 |
| 20260503053100 | 56 | 262 | 7.0 | 9.0 | 0.00 | 0.00 | 0.00 | 70 | 1018.6 |
| 20260503051558 | 55 | 263 | 7.0 | 9.0 | 0.00 | 0.00 | 0.00 | 71 | 1018.7 |
| 20260503050055 | 55 | 255 | 7.0 | 10.0 | 0.00 | 0.00 | 0.00 | 69 | 1018.7 |
| 20260503044559 | 55 | 244 | 5.0 | 9.0 | 0.00 | 0.00 | 0.00 | 69 | 1018.7 |
| 20260503043054 | 55 | 253 | 6.0 | 9.0 | 0.00 | 0.00 | 0.00 | 70 | 1018.6 |
| 20260503041552 | 55 | 252 | 2.0 | 4.0 | 0.00 | 0.00 | 0.00 | 72 | 1018.6 |
| 20260503040020 | 56 | 252 | 0.0 | 1.0 | 0.00 | 0.00 | 0.00 | 71 | 1018.5 |
| 20260503034532 | 55 | 253 | 1.0 | 3.0 | 0.00 | 0.00 | 0.00 | 70 | 1018.5 |
| 20260503033025 | 55 | 359 | 2.0 | 4.0 | 0.00 | 0.00 | 0.00 | 70 | 1018.4 |
| 20260503031516 | 55 | 254 | 3.0 | 7.0 | 0.00 | 0.00 | 0.00 | 70 | 1018.5 |
| 20260503030014 | 55 | 247 | 4.0 | 9.0 | 0.00 | 0.00 | 0.00 | 67 | 1018.5 |
| 20260503024513 | 56 | 256 | 6.0 | 10.0 | 0.00 | 0.00 | 0.00 | 68 | 1018.6 |
| 20260503023008 | 56 | 253 | 6.0 | 9.0 | 0.00 | 0.00 | 0.00 | 67 | 1018.7 |
| 20260503021508 | 57 | 235 | 6.0 | 10.0 | 0.00 | 0.00 | 0.00 | 66 | 1018.7 |
| 20260503020003 | 57 | 359 | 3.0 | 6.0 | 0.00 | 0.00 | 0.00 | 69 | 1018.7 |
| 20260503014503 | 57 | 234 | 3.0 | 6.0 | 0.00 | 0.00 | 0.00 | 68 | 1018.8 |
| 20260503013032 | 57 | 237 | 5.0 | 9.0 | 0.00 | 0.00 | 0.00 | 65 | 1018.8 |
| 20260503011526 | 58 | 203 | 4.0 | 7.0 | 0.00 | 0.00 | 0.00 | 62 | 1018.8 |
| 20260503010056 | 59 | 204 | 3.0 | 9.0 | 0.00 | 0.00 | 0.00 | 62 | 1018.9 |
| 20260503004555 | 58 | 226 | 3.0 | 7.0 | 0.00 | 0.00 | 0.00 | 62 | 1018.9 |
| 20260503003050 | 59 | 230 | 6.0 | 9.0 | 0.00 | 0.00 | 0.00 | 62 | 1019.1 |
| 20260503001558 | 59 | 225 | 5.0 | 9.0 | 0.00 | 0.00 | 0.00 | 62 | 1019.2 |
| 20260503000053 | 60 | 196 | 3.0 | 6.0 | 0.00 | 0.00 | 0.00 | 62 | 1019.2 |
| 20260502234543 | 60 | 216 | 4.0 | 8.0 | 0.00 | 0.00 | 0.00 | 60 | 1019.4 |
| 20260502233056 | 60 | 220 | 4.0 | 6.0 | 0.00 | 0.00 | 0.00 | 61 | 1019.5 |
| 20260502231555 | 60 | 205 | 5.0 | 8.0 | 0.00 | 0.00 | 0.00 | 59 | 1019.7 |
| 20260502230033 | 61 | 209 | 6.0 | 9.0 | 0.00 | 0.00 | 0.00 | 58 | 1019.8 |
| 20260502224532 | 61 | 215 | 4.0 | 8.0 | 0.00 | 0.00 | 0.00 | 57 | 1019.9 |
| 20260502223100 | 61 | 193 | 4.0 | 7.0 | 0.00 | 0.00 | 0.00 | 57 | 1020.0 |
| 20260502221604 | 61 | 220 | 4.0 | 7.0 | 0.00 | 0.00 | 0.00 | 58 | 1020.1 |
| 20260502220058 | 61 | 205 | 3.0 | 9.0 | 0.00 | 0.00 | 0.00 | 60 | 1020.2 |
| 20260502214604 | 63 | 193 | 5.0 | 8.0 | 0.00 | 0.00 | 0.00 | 60 | 1020.1 |
| 20260502213053 | 63 | 183 | 4.0 | 7.0 | 0.00 | 0.00 | 0.00 | 57 | 1020.1 |
| 20260502211549 | 63 | 184 | 4.0 | 6.0 | 0.00 | 0.00 | 0.00 | 53 | 1020.1 |
| 20260502210045 | 63 | 172 | 3.0 | 6.0 | 0.00 | 0.00 | 0.00 | 53 | 1020.1 |
| 20260502204548 | 63 | 177 | 3.0 | 6.0 | 0.00 | 0.00 | 0.00 | 53 | 1020.3 |
| 20260502203039 | 64 | 184 | 4.0 | 7.0 | 0.00 | 0.00 | 0.00 | 55 | 1020.4 |
| 20260502201539 | 64 | 179 | 4.0 | 7.0 | 0.00 | 0.00 | 0.00 | 54 | 1020.5 |
| 20260502200037 | 64 | 202 | 4.0 | 7.0 | 0.00 | 0.00 | 0.00 | 55 | 1020.5 |
| 20260502194538 | 64 | 195 | 3.0 | 5.0 | 0.00 | 0.00 | 0.00 | 57 | 1020.4 |
| 20260502193036 | 64 | 184 | 3.0 | 5.0 | 0.00 | 0.00 | 0.00 | 56 | 1020.3 |